Temp
14 12 12 13 12 14 14 13 12 12 13 14 13 11 12 12 12 11 9 10 9 9 10 9 9 11 14 15 16 16 15 15 14 14 13 14 13 12 13 13 13 13 13 13
12 12 13 13 13 14 13 13 12 12 13 14 12 12 11 12 11 10 10 9 9 9 9 9 9 11 13 14 15 16 16 15 14 14 14 14 13 12 12 12 12 13 13 12
12 15 14 14 15 14 14 12 13 13 13 13 11 11 11 12 11 10 10 9 10 8 8 8 10 11 13 15 15 15 15 15 14 14 13 13 13 13 12 12 12 12 13 12
12 14 15 14 14 13 14 13 14 14 12 11 12 10 10 11 9 9 8 10 8 8 8 8 11 11 13 15 14 14 15 14 14 14 14 13 13 12 13 12 12 12 12 12
14 14 14 14 14 13 13 14 13 13 12 11 11 10 9 9 10 7 8 10 7 8 8 9 12 12 13 14 14 15 14 14 14 14 14 14 13 12 13 12 11 11 12 11
13 15 14 14 14 14 13 13 10 9 9 10 11 10 9 10 10 8 9 9 7 8 9 10 12 13 14 14 14 14 14 14 13 12 12 12 13 13 13 13 13 12 11 12
14 14 15 15 14 13 12 10 7 10 8 9 10 9 9 10 8 7 8 8 8 9 9 10 11 11 12 11 11 11 11 12 12 12 11 11 11 11 12 13 11 11 11 11
11 13 13 14 15 12 12 11 6 8 7 6 9 9 11 10 8 8 8 7 8 9 9 9 9 9 10 10 10 11 11 11 12 11 11 11 11 11 11 11 11 11 11 11
10 13 14 14 14 13 11 11 10 6 6 6 7 10 11 8 8 8 8 7 7 8 9 9 10 9 9 9 9 10 11 11 11 11 11 10 10 10 10 10 9 9 9 9
12 13 14 13 14 12 12 10 10 6 9 11 9 9 10 11 10 9 8 8 7 7 8 9 9 10 10 9 10 10 10 10 11 11 10 9 10 9 9 9 9 9 9 9
11 11 13 13 12 11 11 10 8 8 8 10 10 10 8 10 10 9 8 7 7 7 8 9 10 10 9 10 9 9 9 9 9 11 11 9 9 9 9 9 9 9 9 9
11 9 10 12 12 11 11 10 9 9 10 7 8 9 9 9 8 9 8 7 7 7 8 9 9 9 9 9 9 9 9 9 9 8 9 9 9 9 9 9 10 9 9 8
10 10 10 11 12 12 12 10 9 7 7 7 8 10 7 7 7 8 8 8 7 7 8 8 9 9 9 9 8 8 8 8 8 8 9 9 8 9 10 10 8 8 8 8
13 8 11 12 13 9 11 10 9 10 8 8 8 11 9 7 6 7 8 8 8 8 8 8 9 9 9 8 8 8 8 8 8 9 9 8 8 8 9 8 8 7 7 7
11 11 9 10 12 11 12 11 9 10 10 11 11 9 10 9 7 8 10 9 8 8 8 8 8 9 10 9 9 9 8 8 8 8 9 9 9 9 8 8 8 7 6 6
8 10 10 13 10 10 11 11 9 9 10 9 11 9 10 11 10 9 10 9 8 8 7 8 8 8 8 8 9 9 8 9 8 9 9 8 8 8 7 7 7 7 6 5
8 7 8 12 11 10 11 10 10 10 9 11 11 12 8 8 7 9 10 10 10 9 9 8 8 7 7 7 8 8 8 8 8 8 8 8 7 7 7 6 6 5 5 4
6 8 7 8 10 12 13 11 11 11 12 9 11 10 9 11 14 13 13 13 12 11 10 10 9 9 8 8 8 8 8 8 8 8 7 7 7 7 7 6 5 5 5 4
7 7 6 9 8 11 14 10 10 11 13 11 12 10 11 11 10 11 12 14 14 13 12 11 10 10 9 9 9 8 8 8 8 8 7 7 7 6 6 5 5 4 4 4
7 6 9 5 10 11 13 13 12 13 13 11 12 8 7 9 9 8 15 14 13 13 12 11 10 10 9 9 9 9 8 8 8 8 7 7 7 6 6 5 5 4 4 3
7 7 7 7 8 9 11 12 13 15 15 13 12 10 8 9 12 17 17 15 14 13 12 11 11 10 10 9 9 9 8 8 8 7 7 7 7 6 6 5 5 4 3 3
7 6 7 6 9 12 11 11 13 14 14 16 13 14 14 14 15 17 17 15 14 13 12 11 11 10 10 9 9 9 9 8 7 7 7 6 6 6 5 4 4 3 3 2
10 8 8 9 9 12 13 14 16 17 17 16 17 16 16 16 15 16 17 15 14 14 13 12 11 11 10 10 10 10 9 8 7 7 6 6 6 5 4 4 3 3 3 2
6 6 8 10 11 9 13 15 17 16 17 18 19 19 17 17 16 16 16 15 14 14 13 12 11 11 11 10 10 10 9 8 8 7 7 6 6 5 5 4 3 3 3 2
7 7 6 8 9 11 12 15 17 17 17 17 18 18 18 18 17 16 16 15 15 14 13 13 12 12 11 11 10 10 9 8 8 7 7 6 6 5 5 4 4 3 2 2
5 7 11 10 12 15 17 20 17 17 17 18 18 18 18 18 18 16 16 16 15 15 14 13 13 12 12 11 10 10 9 8 8 7 7 7 6 6 5 4 4 3 3 2
Height
1509 1515 1518 1512 1513 1511 1514 1518 1521 1514 1506 1507 1505 1506 1502 1502 1503 1503 1502 1495 1490 1485 1479 1474 1471 1469 1469 1468 1468 1472 1477 1482 1485 1487 1486 1489 1493 1497 1504 1512 1520 1525 1529 1533
1513 1516 1505 1506 1509 1511 1514 1516 1518 1510 1505 1506 1505 1504 1500 1500 1502 1503 1500 1496 1489 1482 1475 1471 1468 1467 1466 1466 1468 1471 1474 1478 1482 1485 1490 1491 1495 1498 1504 1511 1517 1522 1526 1531
1513 1503 1500 1504 1507 1511 1512 1516 1513 1512 1507 1504 1507 1506 1502 1500 1501 1502 1501 1496 1490 1483 1475 1469 1467 1467 1465 1465 1468 1472 1474 1478 1482 1484 1486 1492 1494 1500 1505 1508 1515 1520 1524 1529
1507 1498 1499 1503 1507 1510 1514 1506 1507 1507 1513 1521 1509 1524 1506 1500 1502 1504 1499 1494 1488 1481 1476 1470 1467 1467 1466 1467 1469 1472 1475 1480 1482 1485 1486 1491 1494 1498 1499 1507 1512 1515 1517 1525
1502 1498 1500 1503 1504 1504 1509 1504 1506 1508 1512 1515 1514 1525 1508 1502 1500 1504 1499 1493 1489 1482 1477 1472 1470 1469 1470 1471 1472 1476 1477 1482 1483 1485 1488 1490 1493 1497 1499 1503 1509 1513 1517 1522
1497 1495 1495 1497 1498 1500 1503 1506 1512 1515 1518 1527 1515 1519 1512 1504 1502 1505 1500 1494 1491 1486 1480 1477 1475 1474 1475 1476 1477 1478 1480 1483 1483 1487 1487 1490 1495 1497 1501 1504 1505 1509 1515 1521
1497 1495 1492 1493 1500 1502 1505 1515 1539 1531 1538 1531 1517 1523 1507 1499 1501 1503 1501 1497 1493 1489 1486 1482 1481 1481 1480 1481 1481 1482 1482 1484 1485 1486 1489 1492 1495 1498 1500 1501 1505 1509 1514 1519
1505 1505 1493 1489 1493 1502 1504 1511 1539 1545 1547 1542 1520 1522 1500 1496 1499 1500 1500 1500 1495 1492 1490 1488 1486 1486 1485 1486 1486 1486 1488 1487 1489 1490 1491 1493 1496 1497 1500 1504 1508 1511 1515 1519
1502 1497 1488 1488 1490 1494 1505 1512 1512 1533 1538 1542 1524 1507 1493 1494 1496 1498 1499 1500 1497 1494 1492 1490 1490 1490 1489 1489 1490 1489 1489 1491 1490 1491 1494 1495 1495 1498 1503 1506 1508 1511 1515 1519
1483 1495 1489 1490 1490 1495 1496 1503 1516 1528 1534 1524 1522 1514 1506 1492 1491 1495 1498 1498 1499 1495 1493 1492 1491 1491 1492 1492 1491 1491 1491 1491 1491 1492 1495 1496 1499 1501 1506 1508 1511 1513 1516 1520
1479 1487 1495 1491 1493 1496 1502 1504 1511 1515 1523 1522 1524 1510 1491 1489 1487 1490 1495 1497 1497 1496 1493 1492 1491 1492 1492 1493 1494 1493 1492 1492 1494 1494 1494 1498 1501 1504 1507 1511 1511 1513 1516 1520
1474 1487 1500 1492 1486 1486 1488 1494 1500 1514 1516 1524 1524 1508 1484 1485 1486 1486 1491 1495 1495 1495 1495 1494 1493 1493 1494 1494 1494 1494 1494 1496 1497 1495 1493 1497 1501 1504 1508 1510 1512 1516 1518 1520
1468 1485 1500 1496 1493 1487 1487 1489 1492 1501 1509 1518 1519 1501 1485 1484 1485 1485 1487 1492 1494 1494 1495 1495 1496 1496 1496 1497 1497 1498 1498 1497 1497 1498 1497 1500 1505 1504 1507 1511 1515 1518 1520 1523
1457 1475 1475 1482 1474 1479 1484 1483 1489 1491 1508 1505 1501 1485 1484 1483 1483 1482 1483 1487 1491 1493 1494 1495 1496 1497 1498 1499 1499 1500 1502 1502 1501 1501 1503 1507 1510 1508 1510 1514 1516 1518 1521 1525
1459 1469 1474 1472 1468 1470 1472 1476 1485 1486 1485 1486 1479 1485 1474 1473 1473 1473 1478 1483 1487 1490 1492 1495 1496 1497 1498 1500 1501 1501 1501 1502 1504 1505 1507 1511 1512 1512 1515 1515 1515 1520 1521 1528
1459 1467 1468 1466 1469 1472 1473 1471 1476 1478 1478 1481 1475 1475 1463 1462 1467 1471 1473 1478 1481 1485 1489 1492 1495 1497 1499 1500 1502 1504 1504 1505 1507 1509 1510 1510 1511 1513 1518 1521 1519 1519 1522 1528
1456 1466 1473 1470 1467 1473 1474 1461 1462 1464 1465 1463 1473 1453 1458 1462 1462 1462 1466 1471 1474 1478 1482 1487 1490 1494 1497 1499 1502 1504 1506 1507 1509 1511 1513 1515 1518 1520 1521 1521 1521 1524 1526 1529
1451 1459 1468 1476 1471 1472 1445 1440 1443 1447 1447 1453 1449 1449 1449 1450 1451 1455 1459 1462 1467 1473 1478 1483 1487 1491 1494 1498 1501 1504 1506 1509 1511 1513 1515 1518 1520 1521 1521 1522 1523 1525 1526 1528
1437 1450 1470 1472 1476 1455 1437 1440 1442 1446 1437 1434 1436 1442 1445 1449 1453 1453 1454 1458 1463 1468 1474 1479 1485 1489 1492 1496 1499 1502 1505 1508 1511 1513 1516 1518 1520 1521 1522 1523 1525 1527 1530 1531
1440 1442 1448 1474 1463 1460 1431 1424 1426 1431 1444 1416 1422 1432 1440 1448 1457 1446 1445 1452 1459 1466 1471 1476 1481 1485 1489 1493 1497 1500 1503 1507 1510 1513 1515 1517 1519 1521 1522 1523 1525 1527 1529 1531
1444 1446 1452 1459 1459 1445 1423 1422 1426 1442 1433 1411 1415 1423 1433 1438 1435 1438 1442 1449 1456 1462 1467 1473 1478 1482 1486 1491 1494 1498 1502 1505 1509 1511 1514 1516 1518 1520 1521 1523 1525 1527 1529 1530
1428 1443 1449 1456 1451 1442 1416 1423 1426 1411 1406 1407 1412 1417 1423 1430 1437 1439 1440 1446 1451 1457 1463 1469 1474 1479 1484 1488 1492 1495 1499 1504 1507 1509 1512 1514 1516 1518 1520 1522 1524 1526 1528 1529
1414 1409 1422 1424 1422 1402 1404 1402 1403 1404 1404 1406 1409 1414 1420 1426 1433 1438 1440 1444 1449 1454 1459 1466 1471 1476 1480 1484 1488 1492 1497 1501 1504 1507 1509 1512 1514 1517 1519 1520 1522 1524 1526 1528
1404 1403 1407 1410 1400 1399 1397 1400 1402 1404 1405 1406 1409 1413 1418 1422 1430 1435 1439 1443 1447 1451 1456 1462 1467 1471 1475 1479 1483 1488 1493 1497 1500 1504 1507 1510 1512 1515 1517 1519 1521 1522 1524 1526
1386 1396 1400 1401 1393 1395 1396 1396 1398 1402 1404 1406 1409 1412 1416 1420 1426 1431 1435 1439 1443 1447 1452 1456 1460 1465 1469 1475 1479 1484 1489 1493 1496 1500 1504 1507 1510 1512 1514 1516 1518 1520 1522 1523
1371 1375 1380 1385 1383 1383 1383 1384 1389 1397 1399 1403 1406 1410 1414 1418 1423 1428 1432 1437 1441 1443 1447 1452 1456 1461 1466 1471 1475 1479 1483 1487 1491 1495 1499 1502 1506 1509 1511 1513 1515 1517 1518 1520
Wind_Speed
2 3 6 8 7 3 2 3 5 5 5 3 3 6 6 5 4 4 13 24 24 24 24 20 17 8 10 12 16 22 22 22 26 20 12 9 14 23 26 27 28 30 28 25
4 6 10 4 4 4 3 3 5 5 3 1 5 8 5 3 2 5 17 20 22 25 27 24 16 4 6 10 17 21 20 18 21 22 15 20 17 14 24 27 29 29 29 24
7 5 3 6 3 3 3 4 4 5 5 0 5 6 3 2 2 6 18 16 16 22 27 23 10 1 4 15 19 19 20 20 18 19 20 22 24 22 23 29 30 32 30 29
6 5 6 4 4 6 3 3 3 2 4 2 3 4 4 2 6 4 16 17 21 25 20 15 6 3 8 14 18 21 21 22 18 18 21 29 24 29 31 30 28 25 28 32
6 5 5 4 6 7 6 1 1 1 2 3 2 2 6 3 4 6 14 18 21 24 17 17 8 4 6 12 13 14 15 14 12 14 15 16 18 23 27 27 13 21 22 21
5 1 4 7 2 3 3 2 5 4 2 2 2 3 5 3 3 4 9 18 21 23 20 20 16 11 12 10 9 9 8 9 9 8 9 12 16 17 21 17 15 21 26 31
1 3 2 3 3 1 3 5 3 4 3 5 1 2 8 3 2 3 6 15 16 20 20 17 16 15 12 12 11 11 10 12 9 7 10 13 16 16 17 20 23 25 27 30
6 3 7 5 5 7 2 5 5 5 2 5 3 4 4 1 4 2 5 9 10 12 15 15 15 14 12 13 13 11 8 10 8 6 8 7 9 9 14 23 22 23 22 26
5 4 1 2 3 5 3 2 4 6 2 3 3 6 5 1 3 2 6 6 7 9 10 13 12 12 11 10 10 8 8 9 11 11 12 12 11 10 10 16 19 24 21 21
7 3 1 2 5 5 3 7 3 3 1 3 4 4 5 4 4 3 3 3 4 5 8 9 10 10 11 9 10 10 10 10 10 7 6 9 13 15 15 13 12 10 11 11
5 4 2 3 6 8 3 2 4 4 4 4 2 5 6 5 4 4 6 3 1 3 7 9 9 9 10 10 11 11 12 11 13 13 15 12 12 11 11 13 10 7 7 9
6 5 4 6 1 4 4 6 6 4 4 2 3 6 1 5 6 6 6 6 4 4 7 9 12 12 11 12 13 16 16 16 16 16 16 15 12 10 9 8 7 9 10 9
9 2 3 5 4 1 4 5 4 5 3 6 5 5 1 2 5 9 7 7 7 7 9 13 16 16 14 13 12 14 13 15 16 15 18 19 17 19 15 11 11 8 7 7
10 4 6 7 5 5 5 6 6 6 4 5 6 3 6 7 8 11 13 11 9 10 11 14 14 13 13 11 11 13 15 13 13 12 12 11 12 12 11 12 12 10 8 8
5 6 5 5 2 4 5 6 9 9 5 7 6 9 8 12 13 22 19 15 14 13 14 14 13 13 13 11 10 8 9 13 14 15 16 16 16 16 15 15 14 13 12 9
1 3 4 2 5 7 5 7 10 10 4 8 4 8 8 4 18 17 21 21 21 19 18 17 15 15 15 12 11 11 13 15 14 15 15 15 14 14 13 12 11 11 11 10
8 6 4 4 3 5 5 12 15 6 6 10 9 10 6 4 11 24 28 27 27 25 21 21 21 19 16 14 13 14 16 17 16 14 13 13 12 11 10 10 9 9 8 8
8 7 3 3 2 4 6 4 6 15 6 11 5 7 12 13 28 27 30 30 29 26 24 22 20 19 16 16 17 16 16 16 15 13 12 11 9 7 7 6 5 4 4 3
2 6 3 5 5 5 4 6 8 8 9 19 20 8 10 7 10 13 25 30 25 26 24 22 20 18 17 17 18 18 18 17 14 12 11 10 7 6 5 5 5 5 5 4
4 5 4 4 5 8 8 4 10 5 6 8 21 10 11 17 4 6 27 31 27 25 24 24 23 21 20 20 20 19 18 16 14 11 9 8 6 5 4 5 5 5 5 5
4 3 6 4 4 7 6 6 11 6 7 8 25 23 25 7 11 11 22 28 27 26 26 25 24 24 23 23 22 21 19 16 13 12 10 8 7 6 5 6 6 5 5 5
8 7 5 3 3 7 11 7 9 7 5 10 19 27 34 21 14 8 17 27 29 30 29 28 27 26 25 25 24 23 20 16 16 15 13 11 9 7 7 7 8 7 7 6
5 7 8 9 7 5 29 6 17 7 8 11 19 25 29 30 21 18 14 24 29 30 30 29 28 27 27 27 26 23 19 19 18 17 15 13 11 9 8 8 8 8 8 8
5 4 4 4 8 10 21 21 22 9 7 11 15 21 26 28 24 21 18 19 28 30 30 30 31 31 31 30 28 24 22 22 21 20 18 17 15 13 11 11 11 10 9 9
5 10 8 5 4 3 12 25 27 22 11 12 16 19 21 23 25 23 22 21 23 30 32 31 31 32 33 32 30 28 26 25 25 23 21 20 18 16 14 13 12 10 10 9
7 7 10 6 11 10 11 36 29 28 27 17 18 19 20 19 21 24 23 20 20 25 31 33 31 31 31 31 32 30 30 30 29 28 26 24 22 20 18 16 15 15 14 13
Wind_Direction
66 76 220 223 198 175 178 208 249 253 258 293 253 280 245 216 277 346 349 353 343 337 331 329 321 275 240 250 204 193 193 201 209 219 200 208 194 172 187 198 201 198 193 185
30 238 234 210 174 192 207 243 263 284 256 236 319 282 257 222 251 58 8 347 339 332 330 326 330 255 232 190 176 184 197 206 219 221 182 156 157 174 187 199 207 210 202 192
173 229 98 158 183 189 235 207 233 230 327 278 339 299 346 322 87 34 6 356 339 339 334 332 341 251 170 162 173 184 199 202 206 213 202 186 204 200 202 199 210 217 208 186
229 254 173 175 207 153 276 223 242 276 35 258 40 287 303 294 316 48 353 357 353 351 352 345 13 124 141 159 166 178 184 194 205 211 219 214 215 209 206 208 217 218 199 190
247 181 165 178 217 166 220 29 310 283 180 38 339 67 268 358 326 15 337 348 356 9 17 17 48 45 117 144 163 173 169 190 190 199 216 215 223 221 204 202 267 236 220 204
230 237 170 200 142 174 122 115 47 54 81 8 277 125 282 291 290 346 325 355 6 24 32 51 60 84 109 122 134 148 157 183 184 186 192 214 214 197 185 202 205 201 211 207
232 219 193 147 109 69 87 63 339 3 10 223 226 69 246 261 154 198 330 352 17 33 41 57 69 61 80 99 103 103 110 120 127 155 180 188 193 203 198 188 184 197 195 198
171 261 174 186 183 179 168 154 153 211 213 266 302 241 258 175 144 355 15 22 32 47 53 58 69 84 84 91 99 102 104 104 107 114 115 146 187 192 196 189 190 197 213 207
146 268 118 127 134 129 170 181 157 106 22 32 254 290 301 306 266 66 39 36 35 60 66 84 80 83 88 105 109 113 108 115 103 91 93 105 122 137 175 203 201 190 188 191
198 109 211 149 106 45 160 155 84 12 128 275 285 275 241 280 279 128 124 49 50 78 88 98 103 100 107 111 104 106 116 120 105 106 110 112 111 127 131 136 148 165 176 193
136 105 241 130 205 172 141 173 63 116 138 183 287 264 210 215 217 197 166 146 69 79 103 114 115 117 113 107 106 100 108 110 124 115 111 121 131 124 139 149 150 160 183 201
191 132 167 198 233 176 171 172 152 128 212 169 153 273 321 205 214 196 163 146 145 124 112 119 124 123 123 114 112 111 107 112 127 130 121 131 144 138 134 126 136 130 131 140
179 181 96 7 356 307 207 190 135 111 96 193 146 259 156 190 217 222 192 167 163 147 131 126 123 124 124 121 116 113 114 114 117 122 117 119 126 124 123 133 136 136 144 156
133 142 165 186 187 141 192 178 170 139 146 177 221 244 236 225 218 221 211 187 180 167 157 153 148 144 136 130 120 125 124 122 118 117 118 130 133 128 135 150 151 143 129 141
138 192 169 225 167 151 184 173 176 196 182 184 223 203 225 214 209 211 210 195 188 188 181 170 167 159 147 137 125 121 122 119 122 128 129 126 123 124 126 124 121 128 132 139
156 181 150 229 205 204 228 218 194 213 207 265 256 258 219 243 203 200 206 201 200 198 196 188 180 175 163 157 153 152 142 132 131 128 122 115 110 108 115 116 115 114 123 132
148 136 131 236 146 131 282 221 202 184 193 190 213 226 163 174 195 202 205 207 209 207 202 196 187 185 179 175 173 159 149 143 141 136 130 129 129 129 123 116 115 122 127 136
144 128 121 154 136 225 238 150 175 206 208 212 223 188 183 200 211 211 211 209 210 209 204 200 191 191 186 179 171 167 161 155 156 152 144 142 142 135 124 120 122 128 141 155
117 131 129 153 197 286 250 195 156 168 257 204 219 188 195 169 182 230 221 217 215 207 204 200 193 192 190 186 180 175 172 172 171 167 163 158 153 145 140 147 155 160 167 180
82 67 121 145 167 211 227 181 161 135 291 202 199 168 150 149 159 239 207 204 209 208 205 200 196 195 196 192 189 187 188 187 185 182 175 169 164 159 157 162 169 181 194 205
128 84 167 163 209 283 240 157 146 129 234 169 184 171 158 188 196 228 196 196 201 200 200 202 204 204 199 197 195 196 198 199 191 192 191 191 189 186 188 190 195 206 217 225
154 145 173 135 153 248 157 108 165 215 159 168 178 185 187 193 182 152 187 195 195 195 198 203 205 205 204 204 204 203 206 197 199 200 201 203 206 207 202 201 206 216 222 228
194 184 171 180 199 223 179 191 193 188 170 171 179 187 194 193 196 192 178 194 197 195 197 201 205 207 208 209 211 212 209 204 206 208 208 211 216 221 224 226 225 226 228 231
236 163 168 123 211 220 210 207 199 203 188 184 181 183 189 195 199 196 192 190 197 197 200 201 205 209 212 212 215 216 213 211 213 214 214 216 221 226 231 233 232 235 239 240
178 147 165 253 287 69 235 223 211 210 203 189 183 189 192 196 203 202 198 199 199 200 203 206 209 213 214 215 216 216 213 215 217 218 218 221 224 229 234 238 240 242 241 245
190 167 184 206 187 187 209 220 215 208 212 202 189 185 193 200 205 207 209 207 205 202 207 210 213 218 219 218 220 218 215 215 218 220 219 221 224 228 232 234 236 237 236 238